| time (UTC) | temp C | wind direction | speed KPH | gust KPH | rain 1hr cm | rain 24hr cm | rain mn cm | humidity % | barometer mb |
| 20260906044531 | 15 | 36 | 0.0 | 0.0 | 0.03 | 0.15 | 0.15 | 87 | 1013.0 |
| 20260906043030 | 15 | 36 | 0.0 | 0.0 | 0.03 | 0.15 | 0.15 | 87 | 1012.9 |
| 20260906041529 | 15 | 36 | 0.0 | 0.0 | 0.03 | 0.15 | 0.15 | 87 | 1013.0 |
| 20260906040128 | 16 | 36 | 0.0 | 3.2 | 0.05 | 0.15 | 0.15 | 87 | 1013.1 |
| 20260906034525 | 15 | 55 | 0.0 | 4.8 | 0.08 | 0.13 | 0.13 | 87 | 1013.1 |
| 20260906033023 | 15 | 76 | 0.0 | 4.8 | 0.08 | 0.13 | 0.13 | 87 | 1013.0 |
| 20260906031554 | 15 | 76 | 0.0 | 0.0 | 0.08 | 0.13 | 0.13 | 86 | 1012.9 |
| 20260906030018 | 15 | 76 | 0.0 | 0.0 | 0.05 | 0.10 | 0.10 | 86 | 1012.9 |
| 20260906024538 | 15 | 76 | 0.0 | 3.2 | 0.00 | 0.05 | 0.05 | 86 | 1012.9 |
| 20260906023020 | 16 | 76 | 0.0 | 0.0 | 0.00 | 0.05 | 0.05 | 86 | 1012.8 |
| 20260906021515 | 16 | 76 | 0.0 | 0.0 | 0.00 | 0.05 | 0.05 | 86 | 1012.6 |
| 20260906020115 | 15 | 76 | 0.0 | 0.0 | 0.00 | 0.05 | 0.05 | 86 | 1012.5 |
| 20260906014543 | 16 | 76 | 0.0 | 0.0 | 0.00 | 0.05 | 0.05 | 86 | 1012.5 |
| 20260906013042 | 16 | 76 | 0.0 | 0.0 | 0.03 | 0.05 | 0.05 | 86 | 1012.6 |
| 20260906011539 | 16 | 76 | 0.0 | 0.0 | 0.05 | 0.05 | 0.05 | 86 | 1012.7 |
| 20260906010046 | 16 | 76 | 0.0 | 0.0 | 0.05 | 0.05 | 0.05 | 85 | 1012.7 |
| 20260906004534 | 16 | 76 | 0.0 | 0.0 | 0.05 | 0.05 | 0.05 | 85 | 1012.8 |
| 20260906003031 | 17 | 76 | 0.0 | 1.6 | 0.03 | 0.03 | 0.03 | 83 | 1012.5 |
| 20260906001556 | 17 | 80 | 0.0 | 6.4 | 0.00 | 0.00 | 0.00 | 82 | 1012.3 |
| 20260905234554 | 18 | 90 | 0.0 | 0.0 | 0.00 | 0.00 | 0.00 | 81 | 1011.7 |
| 20260905233051 | 18 | 90 | 0.0 | 3.2 | 0.00 | 0.00 | 0.00 | 81 | 1011.4 |
| 20260905231546 | 18 | 89 | 0.0 | 0.0 | 0.00 | 0.00 | 0.00 | 81 | 1011.4 |
| 20260905230045 | 18 | 89 | 0.0 | 0.0 | 0.00 | 0.00 | 0.00 | 82 | 1011.3 |
| 20260905224540 | 19 | 89 | 0.0 | 0.0 | 0.00 | 0.00 | 0.00 | 82 | 1011.3 |
| 20260905223039 | 19 | 89 | 0.0 | 0.0 | 0.00 | 0.00 | 0.00 | 82 | 1011.3 |
| 20260905221537 | 19 | 89 | 0.0 | 0.0 | 0.00 | 0.00 | 0.00 | 81 | 1011.2 |
| 20260905220039 | 19 | 89 | 0.0 | 0.0 | 0.00 | 0.00 | 0.00 | 81 | 1011.0 |
| 20260905213110 | 20 | 83 | 0.0 | 1.6 | 0.00 | 0.00 | 0.00 | 79 | 1010.5 |
| 20260905210028 | 20 | 331 | 0.0 | 1.6 | 0.00 | 0.00 | 0.00 | 82 | 1010.3 |
| 20260905204525 | 20 | 328 | 0.0 | 0.0 | 0.00 | 0.00 | 0.00 | 81 | 1010.2 |
| 20260905203025 | 19 | 328 | 0.0 | 0.0 | 0.00 | 0.00 | 0.00 | 81 | 1010.3 |
| 20260905201531 | 19 | 328 | 0.0 | 0.0 | 0.00 | 0.00 | 0.00 | 81 | 1010.2 |
| 20260905200027 | 19 | 328 | 0.0 | 9.7 | 0.00 | 0.00 | 0.00 | 81 | 1010.1 |
| 20260905194520 | 19 | 326 | 0.0 | 6.4 | 0.00 | 0.00 | 0.00 | 80 | 1010.1 |
| 20260905193018 | 19 | 130 | 0.0 | 0.0 | 0.00 | 0.00 | 0.00 | 80 | 1009.9 |
| 20260905191518 | 20 | 130 | 0.0 | 1.6 | 0.00 | 0.00 | 0.00 | 78 | 1009.9 |
| 20260905190018 | 21 | 344 | 0.0 | 9.7 | 0.00 | 0.00 | 0.00 | 73 | 1010.0 |
| 20260905184514 | 21 | 290 | 0.0 | 0.0 | 0.00 | 0.00 | 0.00 | 71 | 1009.7 |
| 20260905183020 | 21 | 290 | 0.0 | 0.0 | 0.00 | 0.00 | 0.00 | 73 | 1009.7 |
| 20260905181512 | 21 | 290 | 0.0 | 0.0 | 0.00 | 0.00 | 0.00 | 74 | 1009.9 |
| 20260905180011 | 21 | 290 | 0.0 | 0.0 | 0.00 | 0.00 | 0.00 | 73 | 1009.9 |
| 20260905174545 | 22 | 8 | 0.0 | 3.2 | 0.00 | 0.00 | 0.00 | 72 | 1009.8 |
| 20260905173055 | 22 | 124 | 0.0 | 9.7 | 0.00 | 0.00 | 0.00 | 72 | 1009.6 |
| 20260905171539 | 22 | 327 | 0.0 | 6.4 | 0.00 | 0.00 | 0.00 | 74 | 1009.6 |
| 20260905170039 | 21 | 328 | 0.0 | 3.2 | 0.00 | 0.00 | 0.00 | 74 | 1009.6 |
| 20260905164536 | 21 | 326 | 0.0 | 12.9 | 0.00 | 0.00 | 0.00 | 73 | 1009.4 |
| 20260905163035 | 21 | 325 | 0.0 | 9.7 | 0.00 | 0.00 | 0.00 | 71 | 1009.4 |
| 20260905161504 | 21 | 328 | 0.0 | 20.9 | 0.00 | 0.00 | 0.00 | 72 | 1009.4 |
| 20260905160004 | 21 | 331 | 0.0 | 12.9 | 0.00 | 0.00 | 0.00 | 75 | 1009.4 |
| 20260905154502 | 20 | 334 | 0.0 | 9.7 | 0.00 | 0.00 | 0.00 | 74 | 1009.7 |
| 20260905153001 | 21 | 334 | 0.0 | 6.4 | 0.00 | 0.00 | 0.00 | 75 | 1009.8 |
| 20260905151612 | 21 | 339 | 0.0 | 12.9 | 0.00 | 0.00 | 0.00 | 74 | 1009.7 |
| 20260905144559 | 20 | 334 | 0.0 | 12.9 | 0.00 | 0.00 | 0.00 | 74 | 1009.4 |
| 20260905143200 | 21 | 339 | 6.4 | 24.1 | 0.00 | 0.00 | 0.00 | 74 | 1009.3 |
| 20260905141556 | 21 | 332 | 8.0 | 17.7 | 0.00 | 0.00 | 0.00 | 74 | 1009.4 |
| 20260905140056 | 21 | 339 | 8.0 | 19.3 | 0.00 | 0.00 | 0.00 | 74 | 1009.4 |
| 20260905134559 | 20 | 328 | 0.0 | 9.7 | 0.00 | 0.00 | 0.00 | 76 | 1009.5 |
| 20260905133056 | 20 | 324 | 1.6 | 16.1 | 0.00 | 0.00 | 0.00 | 78 | 1009.4 |
| 20260905131552 | 20 | 307 | 8.0 | 16.1 | 0.00 | 0.00 | 0.00 | 79 | 1009.6 |
| 20260905130051 | 19 | 326 | 0.0 | 9.7 | 0.00 | 0.00 | 0.00 | 80 | 1009.7 |
| 20260905124532 | 18 | 324 | 1.6 | 9.7 | 0.00 | 0.00 | 0.00 | 80 | 1009.6 |
| 20260905123018 | 18 | 326 | 0.0 | 16.1 | 0.00 | 0.00 | 0.00 | 81 | 1009.6 |
| 20260905121513 | 18 | 321 | 8.0 | 19.3 | 0.00 | 0.00 | 0.00 | 82 | 1009.3 |
| 20260905120011 | 18 | 320 | 9.7 | 14.5 | 0.00 | 0.00 | 0.00 | 82 | 1009.2 |
| 20260905114510 | 17 | 325 | 8.0 | 12.9 | 0.00 | 0.00 | 0.00 | 83 | 1009.1 |
| 20260905113010 | 17 | 318 | 6.4 | 14.5 | 0.00 | 0.00 | 0.00 | 83 | 1009.1 |
| 20260905111609 | 17 | 331 | 3.2 | 9.7 | 0.00 | 0.00 | 0.00 | 84 | 1009.0 |
| 20260905110008 | 17 | 326 | 0.0 | 0.0 | 0.00 | 0.00 | 0.00 | 85 | 1008.8 |
| 20260905104510 | 17 | 326 | 0.0 | 4.8 | 0.00 | 0.00 | 0.00 | 85 | 1008.7 |
| 20260905103043 | 17 | 299 | 4.8 | 9.7 | 0.00 | 0.00 | 0.00 | 86 | 1008.6 |
| 20260905101549 | 16 | 293 | 0.0 | 0.0 | 0.00 | 0.00 | 0.00 | 86 | 1008.6 |
| 20260905100033 | 16 | 293 | 0.0 | 4.8 | 0.00 | 0.00 | 0.00 | 86 | 1008.5 |
| 20260905094533 | 16 | 293 | 0.0 | 0.0 | 0.00 | 0.00 | 0.00 | 86 | 1008.5 |
| 20260905093032 | 16 | 293 | 0.0 | 1.6 | 0.00 | 0.00 | 0.00 | 86 | 1008.6 |
| 20260905091532 | 15 | 293 | 0.0 | 0.0 | 0.00 | 0.00 | 0.00 | 86 | 1008.5 |
| 20260905090002 | 15 | 293 | 0.0 | 0.0 | 0.00 | 0.00 | 0.00 | 87 | 1008.5 |
| 20260905084602 | 16 | 293 | 0.0 | 0.0 | 0.00 | 0.00 | 0.00 | 87 | 1008.4 |
| 20260905083059 | 15 | 293 | 0.0 | 0.0 | 0.00 | 0.00 | 0.00 | 87 | 1008.4 |
| 20260905080104 | 15 | 293 | 0.0 | 0.0 | 0.00 | 0.00 | 0.00 | 87 | 1008.4 |
| 20260905074555 | 15 | 293 | 0.0 | 0.0 | 0.00 | 0.00 | 0.00 | 87 | 1008.5 |
| 20260905073029 | 15 | 293 | 0.0 | 0.0 | 0.00 | 0.00 | 0.00 | 87 | 1008.6 |
| 20260905071527 | 15 | 293 | 0.0 | 0.0 | 0.00 | 0.00 | 0.00 | 87 | 1008.7 |
| 20260905070025 | 15 | 293 | 0.0 | 0.0 | 0.00 | 0.00 | 0.00 | 87 | 1008.7 |
| 20260905064518 | 15 | 293 | 0.0 | 0.0 | 0.00 | 0.00 | 0.00 | 87 | 1008.9 |
| 20260905063017 | 15 | 293 | 0.0 | 0.0 | 0.00 | 0.00 | 0.00 | 87 | 1008.9 |
| 20260905061515 | 15 | 293 | 0.0 | 0.0 | 0.00 | 0.00 | 0.00 | 87 | 1009.1 |
| 20260905060044 | 16 | 293 | 0.0 | 0.0 | 0.00 | 0.00 | 0.00 | 87 | 1009.3 |
| 20260905054551 | 16 | 293 | 0.0 | 0.0 | 0.00 | 0.00 | 0.00 | 87 | 1009.3 |
| 20260905053041 | 16 | 293 | 0.0 | 0.0 | 0.00 | 0.00 | 0.00 | 87 | 1009.3 |
| 20260905051541 | 16 | 293 | 0.0 | 0.0 | 0.00 | 0.00 | 0.00 | 87 | 1009.4 |
| 20260905050036 | 16 | 293 | 0.0 | 0.0 | 0.00 | 0.00 | 0.00 | 86 | 1009.5 |